EW6055 Weather Reports


Display with metric or nautical units.
time (UTC)temp
F
wind
direction
speed
MPH
gust
MPH
rain 1hr
in
rain 24hr
in
rain mn
in
humidity
%
barometer
mb
20260507105002 53 0 0.0 0.0 0.00 0.00 0.00 77 1019.0
20260507104502 53 352 0.0 3.0 0.00 0.00 0.00 76 1019.0
20260507104002 53 350 0.0 3.0 0.00 0.00 0.00 76 1019.0
20260507103502 53 334 1.0 3.0 0.00 0.00 0.00 76 1019.0
20260507103002 53 329 1.0 3.0 0.00 0.00 0.00 76 1019.1
20260507102523 53 332 1.0 6.0 0.00 0.00 0.00 76 1019.1
20260507102002 53 335 1.0 6.0 0.00 0.00 0.00 76 1019.1
20260507101523 53 0 0.0 0.0 0.00 0.00 0.00 76 1019.1
20260507101023 54 338 0.0 1.0 0.00 0.00 0.00 76 1019.1
20260507100502 54 323 1.0 4.0 0.00 0.00 0.00 75 1019.2
20260507100002 54 325 1.0 4.0 0.00 0.00 0.00 75 1019.2
20260507095502 54 336 1.0 3.0 0.00 0.00 0.00 75 1019.2
20260507095002 54 338 0.0 2.0 0.00 0.00 0.00 76 1019.2
20260507094502 54 0 0.0 0.0 0.00 0.00 0.00 76 1019.2
20260507094002 54 0 0.0 0.0 0.00 0.00 0.00 76 1019.3
20260507093502 54 0 0.0 0.0 0.00 0.00 0.00 76 1019.4
20260507093002 54 0 0.0 0.0 0.00 0.00 0.00 76 1019.4
20260507092502 54 0 0.0 0.0 0.00 0.00 0.00 77 1019.5
20260507092002 54 0 0.0 0.0 0.00 0.00 0.00 76 1019.5
20260507091502 54 0 0.0 0.0 0.00 0.00 0.00 77 1019.5
20260507091002 54 333 0.0 2.0 0.00 0.00 0.00 77 1019.6
20260507090502 54 329 0.0 2.0 0.00 0.00 0.00 77 1019.6
20260507090002 54 322 0.0 2.0 0.00 0.00 0.00 77 1019.6
20260507085502 54 319 0.0 3.0 0.00 0.00 0.00 77 1019.6
20260507085002 54 322 0.0 3.0 0.00 0.00 0.00 77 1019.5
20260507084502 54 0 0.0 0.0 0.00 0.00 0.00 77 1019.6
20260507084023 54 0 0.0 0.0 0.00 0.00 0.00 77 1019.5
20260507083523 54 0 0.0 0.0 0.00 0.00 0.00 78 1019.5
20260507083002 54 333 1.0 3.0 0.00 0.00 0.00 78 1019.5
20260507082502 54 333 1.0 5.0 0.00 0.00 0.00 78 1019.5
20260507082023 54 333 1.0 5.0 0.00 0.00 0.00 78 1019.5
20260507081523 54 33 0.0 2.0 0.00 0.00 0.00 78 1019.5
20260507081002 54 333 1.0 4.0 0.00 0.00 0.00 78 1019.4
20260507080523 54 331 1.0 4.0 0.00 0.00 0.00 78 1019.5
20260507080002 54 330 1.0 4.0 0.00 0.00 0.00 78 1019.5
20260507075502 54 331 1.0 5.0 0.00 0.00 0.00 78 1019.5
20260507075002 54 337 1.0 5.0 0.00 0.00 0.00 78 1019.5
20260507074502 54 335 1.0 3.0 0.00 0.00 0.00 79 1019.5
20260507074002 54 320 0.0 2.0 0.00 0.00 0.00 79 1019.5
20260507073523 54 331 0.0 2.0 0.00 0.00 0.00 79 1019.5
20260507073002 54 343 0.0 3.0 0.00 0.00 0.00 79 1019.4
20260507072502 54 340 1.0 3.0 0.00 0.00 0.00 79 1019.4
20260507072002 54 332 0.0 3.0 0.00 0.00 0.00 79 1019.4
20260507071502 54 0 0.0 0.0 0.00 0.00 0.00 79 1019.4
20260507071002 55 0 0.0 0.0 0.00 0.00 0.00 79 1019.4
20260507070502 55 323 0.0 2.0 0.00 0.00 0.00 79 1019.4
20260507070004 55 337 0.0 3.0 0.00 0.00 0.00 79 1019.4
20260507065502 55 338 1.0 3.0 0.00 0.00 0.00 79 1019.4
20260507065023 55 342 1.0 4.0 0.00 0.00 0.00 80 1019.5
20260507064502 55 341 1.0 4.0 0.00 0.00 0.00 80 1019.4
20260507064023 55 336 1.0 4.0 0.00 0.00 0.00 80 1019.4
20260507063502 55 336 1.0 6.0 0.00 0.00 0.00 80 1019.4
20260507063002 55 337 1.0 6.0 0.00 0.00 0.00 80 1019.4
20260507062502 55 336 1.0 5.0 0.00 0.00 0.00 80 1019.5
20260507062002 55 335 1.0 5.0 0.00 0.00 0.00 79 1019.5
20260507061502 55 336 1.0 5.0 0.00 0.00 0.00 79 1019.5
20260507061023 55 338 1.0 6.0 0.00 0.00 0.00 79 1019.5
20260507060502 55 338 1.0 6.0 0.00 0.00 0.00 79 1019.5
20260507060002 56 329 1.0 6.0 0.00 0.00 0.00 79 1019.4
20260507055523 56 333 1.0 4.0 0.00 0.00 0.00 79 1019.4
20260507055002 56 337 1.0 4.0 0.00 0.00 0.00 78 1019.4
20260507054502 56 336 1.0 4.0 0.00 0.00 0.00 78 1019.4
20260507054002 56 339 1.0 4.0 0.00 0.00 0.00 78 1019.4
20260507053502 56 341 1.0 4.0 0.00 0.00 0.00 78 1019.4
20260507053003 56 341 1.0 4.0 0.00 0.00 0.00 78 1019.4
20260507052502 56 339 1.0 4.0 0.00 0.00 0.00 78 1019.4
20260507052003 56 335 2.0 6.0 0.00 0.00 0.00 77 1019.4
20260507051523 56 331 2.0 6.0 0.00 0.00 0.00 77 1019.3
20260507051002 57 332 2.0 5.0 0.00 0.00 0.00 77 1019.3
20260507050502 57 342 1.0 5.0 0.00 0.00 0.00 77 1019.4
20260507050002 57 343 1.0 5.0 0.00 0.00 0.00 77 1019.3
20260507045502 57 335 1.0 5.0 0.00 0.00 0.00 76 1019.4
20260507045023 57 328 1.0 4.0 0.00 0.00 0.00 76 1019.3
20260507044502 57 335 1.0 5.0 0.00 0.00 0.00 76 1019.4
20260507044024 58 337 1.0 5.0 0.00 0.00 0.00 76 1019.3
20260507043523 58 340 1.0 6.0 0.00 0.00 0.00 76 1019.3
20260507043002 58 338 1.0 6.0 0.00 0.00 0.00 76 1019.2
20260507042502 58 332 1.0 4.0 0.00 0.00 0.00 76 1019.2
20260507042002 58 333 1.0 4.0 0.00 0.00 0.00 76 1019.1
20260507041502 58 338 1.0 4.0 0.00 0.00 0.00 76 1019.1
20260507041002 59 334 1.0 4.0 0.00 0.00 0.00 76 1019.0
20260507040502 59 327 2.0 5.0 0.00 0.00 0.00 76 1018.9
20260507040002 59 325 1.0 5.0 0.00 0.00 0.00 76 1018.9
20260507035523 59 308 1.0 3.0 0.00 0.00 0.00 76 1018.8
20260507035002 59 326 1.0 8.0 0.00 0.00 0.00 77 1018.7
20260507034502 59 336 1.0 8.0 0.00 0.00 0.00 76 1018.6
20260507034003 59 333 1.0 5.0 0.00 0.00 0.00 76 1018.6
20260507033502 59 326 1.0 4.0 0.00 0.00 0.00 76 1018.5
20260507033002 59 323 1.0 4.0 0.00 0.00 0.00 76 1018.5
20260507032502 59 323 1.0 4.0 0.00 0.00 0.00 76 1018.4
20260507032002 60 322 1.0 4.0 0.00 0.00 0.00 75 1018.4
20260507031502 60 312 1.0 4.0 0.00 0.00 0.00 75 1018.3
20260507031002 60 317 1.0 5.0 0.00 0.00 0.00 74 1018.2
20260507030503 60 321 1.0 6.0 0.00 0.00 0.00 74 1018.2
20260507030002 61 310 1.0 6.0 0.00 0.00 0.00 73 1018.2
20260507025502 61 308 1.0 3.0 0.00 0.00 0.00 73 1018.1
20260507025002 62 320 1.0 5.0 0.00 0.00 0.00 72 1018.1
20260507024504 62 334 1.0 5.0 0.00 0.00 0.00 72 1018.0
20260507024002 62 337 1.0 4.0 0.00 0.00 0.00 71 1018.0
20260507023502 62 339 1.0 4.0 0.00 0.00 0.00 71 1017.8
20260507023002 63 342 1.0 4.0 0.00 0.00 0.00 71 1017.9
20260507022502 63 338 1.0 5.0 0.00 0.00 0.00 71 1017.9
20260507022023 63 336 1.0 5.0 0.00 0.00 0.00 70 1017.8
20260507021502 63 325 1.0 3.0 0.00 0.00 0.00 70 1018.0
20260507021023 63 315 1.0 5.0 0.00 0.00 0.00 70 1018.0
20260507020523 63 314 1.0 5.0 0.00 0.00 0.00 70 1018.0
20260507020002 64 334 1.0 3.0 0.00 0.00 0.00 69 1018.0
20260507015502 64 340 1.0 8.0 0.00 0.00 0.00 69 1017.9
20260507015003 64 340 1.0 8.0 0.00 0.00 0.00 69 1018.0
20260507014502 64 336 1.0 5.0 0.00 0.00 0.00 68 1018.0
20260507014023 65 332 1.0 5.0 0.00 0.00 0.00 67 1018.0
20260507013523 66 333 1.0 4.0 0.00 0.00 0.00 67 1018.0
20260507013002 66 329 1.0 8.0 0.00 0.00 0.00 68 1017.9
20260507012502 66 332 1.0 8.0 0.00 0.00 0.00 67 1017.8
20260507012003 67 329 1.0 4.0 0.00 0.00 0.00 67 1017.8
20260507011502 67 317 1.0 5.0 0.00 0.00 0.00 66 1017.7
20260507011002 68 326 1.0 5.0 0.00 0.00 0.00 66 1017.8
20260507010502 69 330 1.0 9.0 0.00 0.00 0.00 65 1017.9
20260507010002 69 327 1.0 9.0 0.00 0.00 0.00 63 1017.8
20260507005502 70 334 0.0 5.0 0.00 0.00 0.00 62 1017.7
20260507005002 70 339 0.0 1.0 0.00 0.00 0.00 62 1017.7
20260507004502 71 277 0.0 2.0 0.00 0.00 0.00 61 1017.7
20260507004002 71 268 1.0 2.0 0.00 0.00 0.00 60 1017.7
20260507003502 71 273 1.0 2.0 0.00 0.00 0.00 60 1017.7
20260507003003 71 299 1.0 2.0 0.00 0.00 0.00 60 1017.7
20260507002502 71 302 1.0 2.0 0.00 0.00 0.00 59 1017.8
20260507002002 72 285 0.0 1.0 0.00 0.00 0.00 59 1017.8
20260507001502 72 0 0.0 0.0 0.00 0.00 0.00 58 1017.8
20260507001002 72 0 0.0 0.0 0.00 0.00 0.00 59 1017.7
20260507000502 72 79 0.0 1.0 0.00 0.00 0.00 59 1017.7
20260507000003 71 174 1.0 3.0 0.00 0.00 0.00 60 1017.8
20260506235502 71 168 1.0 3.0 0.00 0.00 0.00 59 1017.7
20260506235004 71 140 0.0 2.0 0.00 0.00 0.00 60 1017.7
20260506234502 71 113 0.0 2.0 0.00 0.00 0.00 59 1017.8
20260506234023 71 166 0.0 2.0 0.00 0.00 0.00 59 1017.8
20260506233502 71 229 1.0 2.0 0.00 0.00 0.00 58 1017.8
20260506233023 72 271 1.0 4.0 0.00 0.00 0.00 58 1017.8
20260506232502 72 291 2.0 7.0 0.00 0.00 0.00 58 1017.8
20260506232023 72 290 1.0 7.0 0.00 0.00 0.00 58 1017.9
20260506231502 72 220 1.0 2.0 0.00 0.00 0.00 59 1018.0
20260506231023 72 207 1.0 3.0 0.00 0.00 0.00 58 1018.1
20260506230502 71 184 0.0 4.0 0.00 0.00 0.00 60 1018.1
20260506230002 71 152 0.0 4.0 0.00 0.00 0.00 60 1018.1
20260506225502 71 165 1.0 2.0 0.00 0.00 0.00 60 1018.2
20260506225002 71 160 0.0 2.0 0.00 0.00 0.00 59 1018.3
20260506224502 71 155 0.0 2.0 0.00 0.00 0.00 60 1018.4
20260506224002 70 200 1.0 2.0 0.00 0.00 0.00 61 1018.4
20260506223502 70 207 1.0 2.0 0.00 0.00 0.00 61 1018.4
20260506223023 70 205 1.0 2.0 0.00 0.00 0.00 61 1018.5
20260506222502 70 215 1.0 2.0 0.00 0.00 0.00 62 1018.5
20260506222002 69 337 1.0 3.0 0.00 0.00 0.00 63 1018.6
20260506221502 69 323 1.0 3.0 0.00 0.00 0.00 63 1018.6
20260506221002 68 281 1.0 2.0 0.00 0.00 0.00 66 1018.6
20260506220502 68 171 1.0 2.0 0.00 0.00 0.00 66 1018.6
20260506220024 68 195 1.0 4.0 0.00 0.00 0.00 66 1018.5
20260506215502 68 220 1.0 4.0 0.00 0.00 0.00 66 1018.4
20260506215002 68 205 1.0 3.0 0.00 0.00 0.00 67 1018.5
20260506214502 67 163 1.0 2.0 0.00 0.00 0.00 67 1018.6
20260506214002 67 139 1.0 3.0 0.00 0.00 0.00 67 1018.7
20260506213502 67 149 1.0 3.0 0.00 0.00 0.00 67 1018.7
20260506213023 67 188 1.0 3.0 0.00 0.00 0.00 67 1018.9
20260506212523 67 239 1.0 9.0 0.00 0.00 0.00 68 1018.9
20260506212002 67 232 1.0 9.0 0.00 0.00 0.00 67 1019.0
20260506211502 67 232 1.0 5.0 0.00 0.00 0.00 67 1019.1
20260506211002 67 265 1.0 5.0 0.00 0.00 0.00 68 1018.9
20260506210502 67 253 1.0 3.0 0.00 0.00 0.00 68 1019.0
20260506210002 67 191 1.0 2.0 0.00 0.00 0.00 68 1019.0
20260506205502 66 156 1.0 3.0 0.00 0.00 0.00 68 1018.9
20260506205003 66 139 1.0 3.0 0.00 0.00 0.00 69 1018.9
20260506204502 66 206 1.0 3.0 0.00 0.00 0.00 70 1018.8
20260506204002 66 200 1.0 3.0 0.00 0.00 0.00 71 1018.8
20260506203503 65 158 1.0 3.0 0.00 0.00 0.00 71 1018.9
20260506203002 64 138 1.0 2.0 0.00 0.00 0.00 72 1019.0
20260506202502 64 136 1.0 4.0 0.00 0.00 0.00 73 1019.0
20260506202024 64 143 1.0 4.0 0.00 0.00 0.00 73 1019.0
20260506201503 64 165 1.0 3.0 0.00 0.00 0.00 74 1019.2
20260506201002 64 196 1.0 3.0 0.00 0.00 0.00 74 1019.3
20260506200502 64 220 0.0 2.0 0.00 0.00 0.00 74 1019.3
20260506200003 63 0 0.0 0.0 0.00 0.00 0.00 74 1019.3
20260506195502 63 259 0.0 2.0 0.00 0.00 0.00 74 1019.3
20260506195002 63 217 0.0 2.0 0.00 0.00 0.00 74 1019.4
20260506194523 63 222 1.0 2.0 0.00 0.00 0.00 74 1019.4
20260506194002 63 234 1.0 5.0 0.00 0.00 0.00 74 1019.4
20260506193502 63 227 1.0 5.0 0.00 0.00 0.00 74 1019.4
20260506193003 63 202 1.0 3.0 0.00 0.00 0.00 75 1019.3
20260506192502 63 170 1.0 3.0 0.00 0.00 0.00 74 1019.2
20260506192002 63 160 1.0 3.0 0.00 0.00 0.00 74 1019.2
20260506191502 63 190 1.0 4.0 0.00 0.00 0.00 75 1019.2
20260506191002 62 210 1.0 4.0 0.00 0.00 0.00 76 1019.2
20260506190502 62 207 1.0 4.0 0.00 0.00 0.00 75 1019.3
20260506190023 62 196 1.0 2.0 0.00 0.00 0.00 75 1019.2
20260506185503 62 192 1.0 3.0 0.00 0.00 0.00 77 1019.2
20260506185002 62 198 1.0 3.0 0.00 0.00 0.00 76 1019.2
20260506184503 62 197 1.0 4.0 0.00 0.00 0.00 76 1019.2
20260506184003 62 197 1.0 4.0 0.00 0.00 0.00 77 1019.2
20260506183502 61 214 1.0 2.0 0.00 0.00 0.00 77 1019.2
20260506183023 61 235 1.0 3.0 0.00 0.00 0.00 77 1019.2
20260506182502 61 224 1.0 3.0 0.00 0.00 0.00 77 1019.1
20260506182002 61 191 1.0 3.0 0.00 0.00 0.00 78 1019.2
20260506181503 61 184 1.0 3.0 0.00 0.00 0.00 77 1019.2
20260506181023 60 199 1.0 3.0 0.00 0.00 0.00 78 1019.2
20260506180502 60 208 1.0 3.0 0.00 0.00 0.00 78 1019.3
20260506180002 60 209 1.0 3.0 0.00 0.00 0.00 78 1019.3
20260506175502 60 221 1.0 3.0 0.00 0.00 0.00 78 1019.2
20260506175023 60 210 1.0 3.0 0.00 0.00 0.00 79 1019.2
20260506174523 60 184 1.0 2.0 0.00 0.00 0.00 80 1019.1
20260506174002 59 194 1.0 2.0 0.00 0.00 0.00 80 1019.0
20260506173502 59 209 1.0 3.0 0.00 0.00 0.00 81 1019.0
20260506173002 58 204 1.0 3.0 0.00 0.00 0.00 82 1019.0
20260506172502 58 217 1.0 2.0 0.00 0.00 0.00 82 1018.9
20260506172002 58 226 1.0 2.0 0.00 0.00 0.00 83 1019.0
20260506171502 58 220 1.0 2.0 0.00 0.00 0.00 83 1019.0
20260506171005 58 216 1.0 3.0 0.00 0.00 0.00 83 1019.1
20260506170502 58 203 1.0 3.0 0.00 0.00 0.00 82 1019.1
20260506170002 58 199 1.0 4.0 0.00 0.00 0.00 82 1018.9
20260506165502 58 196 1.0 4.0 0.00 0.00 0.00 83 1018.9
20260506165002 58 198 1.0 2.0 0.00 0.00 0.00 83 1019.0
20260506164502 58 207 1.0 3.0 0.00 0.00 0.00 83 1019.0
20260506164002 58 199 1.0 3.0 0.00 0.00 0.00 83 1019.0
20260506163502 58 187 1.0 2.0 0.00 0.00 0.00 82 1018.8
20260506163002 58 184 1.0 3.0 0.00 0.00 0.00 83 1018.8
20260506162502 58 187 1.0 3.0 0.00 0.00 0.00 83 1018.7
20260506162002 58 190 1.0 2.0 0.00 0.00 0.00 83 1018.7
20260506161503 58 181 0.0 2.0 0.00 0.00 0.00 84 1018.7
20260506161024 58 173 1.0 3.0 0.00 0.00 0.00 85 1018.5
20260506160502 58 143 1.0 3.0 0.00 0.00 0.00 85 1018.6
20260506160003 57 108 1.0 6.0 0.00 0.00 0.00 87 1018.2
20260506155502 57 103 1.0 6.0 0.00 0.00 0.00 87 1017.9
20260506155002 57 113 0.0 1.0 0.00 0.00 0.00 87 1018.2
20260506154502 56 210 0.0 2.0 0.00 0.00 0.00 87 1018.4
20260506154002 56 197 1.0 2.0 0.00 0.00 0.00 87 1018.7
20260506153502 56 186 0.0 2.0 0.00 0.00 0.00 87 1018.9
20260506153003 56 201 0.0 2.0 0.00 0.00 0.00 87 1018.9
20260506152502 56 210 0.0 2.0 0.00 0.00 0.00 87 1019.0
20260506152002 56 206 0.0 2.0 0.00 0.00 0.00 87 1019.0
20260506151523 56 199 0.0 2.0 0.00 0.00 0.00 87 1018.9
20260506151002 56 239 0.0 2.0 0.00 0.00 0.00 86 1018.9
20260506150502 56 217 1.0 2.0 0.00 0.00 0.00 86 1018.8
20260506150003 56 185 1.0 2.0 0.00 0.00 0.00 85 1018.8
20260506145502 56 220 1.0 3.0 0.00 0.00 0.00 85 1018.8
20260506145023 56 252 1.0 5.0 0.00 0.00 0.00 86 1018.8
20260506144502 56 264 0.0 5.0 0.00 0.00 0.00 86 1018.6
20260506144002 56 244 0.0 2.0 0.00 0.00 0.00 87 1018.4
20260506143502 56 104 0.0 3.0 0.00 0.00 0.00 87 1018.3
20260506143003 56 121 1.0 3.0 0.00 0.00 0.00 87 1018.1
20260506142502 56 123 1.0 2.0 0.00 0.00 0.00 87 1018.0
20260506142002 56 145 1.0 3.0 0.00 0.00 0.00 87 1018.0
20260506141503 56 187 1.0 3.0 0.00 0.00 0.00 87 1017.9
20260506141002 56 193 0.0 3.0 0.00 0.00 0.00 87 1018.0
20260506140503 56 0 0.0 0.0 0.00 0.00 0.00 87 1018.0
20260506140002 56 0 0.0 0.0 0.00 0.00 0.00 87 1017.9
20260506135502 56 0 0.0 0.0 0.00 0.00 0.00 87 1017.8
20260506135023 56 0 0.0 0.0 0.00 0.00 0.00 87 1017.9
20260506134502 56 0 0.0 0.0 0.00 0.00 0.00 87 1017.8
20260506134002 56 0 0.0 0.0 0.00 0.00 0.00 87 1017.7
20260506133503 56 0 0.0 0.0 0.00 0.00 0.00 87 1017.6
20260506133023 56 0 0.0 0.0 0.00 0.00 0.00 86 1017.6
20260506132523 56 100 0.0 3.0 0.00 0.00 0.00 86 1017.6
20260506132002 56 100 0.0 3.0 0.00 0.00 0.00 86 1017.5
20260506131502 56 0 0.0 0.0 0.00 0.00 0.00 86 1017.6
20260506131002 56 0 0.0 0.0 0.00 0.00 0.00 86 1017.7
20260506130524 56 0 0.0 0.0 0.00 0.00 0.00 85 1017.7
20260506130002 56 0 0.0 0.0 0.00 0.00 0.00 85 1017.6
20260506125523 56 0 0.0 0.0 0.00 0.00 0.00 85 1017.6
20260506125002 56 0 0.0 0.0 0.00 0.00 0.00 85 1017.5
20260506124503 56 0 0.0 0.0 0.00 0.00 0.00 85 1017.5
20260506124003 56 0 0.0 0.0 0.00 0.00 0.00 84 1017.6
20260506123503 56 0 0.0 0.0 0.00 0.00 0.00 84 1017.5
20260506123023 56 0 0.0 0.0 0.00 0.00 0.00 84 1017.6
20260506122523 56 0 0.0 0.0 0.00 0.00 0.00 84 1017.5
20260506122023 56 0 0.0 0.0 0.00 0.00 0.00 84 1017.5
20260506121502 56 0 0.0 0.0 0.00 0.00 0.00 84 1017.4
20260506121024 56 0 0.0 0.0 0.00 0.00 0.00 84 1017.4
20260506120503 56 0 0.0 0.0 0.00 0.00 0.00 84 1017.3
20260506120024 56 0 0.0 0.0 0.00 0.00 0.00 84 1017.3
20260506115503 56 0 0.0 0.0 0.00 0.00 0.00 84 1017.3
20260506114502 56 343 0.0 3.0 0.00 0.00 0.00 84 1017.2
20260506114003 57 0 0.0 0.0 0.00 0.00 0.00 84 1017.1
20260506113502 57 294 0.0 3.0 0.00 0.00 0.00 84 1017.1
20260506113003 57 294 0.0 3.0 0.00 0.00 0.00 84 1017.0
20260506112503 57 0 0.0 0.0 0.00 0.00 0.00 84 1016.9
20260506112002 57 0 0.0 0.0 0.00 0.00 0.00 84 1016.9
20260506111503 57 0 0.0 0.0 0.00 0.00 0.00 83 1016.8
20260506111002 57 0 0.0 2.0 0.00 0.00 0.00 83 1016.8
20260506110502 57 0 0.0 2.0 0.00 0.00 0.00 83 1016.8
20260506110002 57 318 0.0 2.0 0.00 0.00 0.00 83 1016.7
20260506105502 57 319 1.0 3.0 0.00 0.00 0.00 83 1016.5